__ Bye Litespeed _____
██████ ██████ ███████████ █████████ █████ ████ █████ ████
░░██████ ██████ ░░███░░░░░███ ███░░░░░███░░███ ███░ ░░███ ███░
░███░█████░███ ░███ ░███ ░███ ░░░ ░███ ███ ░███ ███
░███░░███ ░███ ░██████████ ░░█████████ ░███████ ░███████
░███ ░░░ ░███ ░███░░░░░███ ░░░░░░░░███ ░███░░███ ░███░░███
░███ ░███ ░███ ░███ ███ ░███ ░███ ░░███ ░███ ░░███
█████ █████ █████ █████ ░░█████████ █████ ░░████ █████ ░░████
| Permissions | ||||||
|---|---|---|---|---|---|---|
| . | 12288 | 2026-04-17 22:41:33 | 0755 | |||
| .. | 4096 | 2026-04-17 22:31:26 | 0755 | |||
| date-af-ZA.min.js | 63970 | 2026-04-17 22:30:25 | 0644 | |||
| date-ar-AE.min.js | 65710 | 2026-04-17 22:30:52 | 0644 | |||
| date-ar-BH.min.js | 65619 | 2026-04-17 22:30:35 | 0644 | |||
| date-ar-DZ.min.js | 65571 | 2026-04-17 22:31:06 | 0644 | |||
| date-ar-EG.min.js | 65593 | 2026-04-17 22:30:45 | 0644 | |||
| date-ar-IQ.min.js | 65917 | 2026-04-17 22:31:00 | 0644 | |||
| date-ar-JO.min.js | 65919 | 2026-04-17 22:31:00 | 0644 | |||
| date-ar-KW.min.js | 65612 | 2026-04-17 22:30:59 | 0644 | |||
| date-ar-LB.min.js | 65914 | 2026-04-17 22:30:55 | 0644 | |||
| date-ar-LY.min.js | 65605 | 2026-04-17 22:30:30 | 0644 | |||
| date-ar-MA.min.js | 65566 | 2026-04-17 22:30:19 | 0644 | |||
| date-ar-OM.min.js | 65598 | 2026-04-17 22:30:44 | 0644 | |||
| date-ar-QA.min.js | 65593 | 2026-04-17 22:30:23 | 0644 | |||
| date-ar-SA.min.js | 66177 | 2026-04-17 22:30:47 | 0644 | |||
| date-ar-SY.min.js | 65912 | 2026-04-17 22:30:45 | 0644 | |||
| date-ar-TN.min.js | 65517 | 2026-04-17 22:30:37 | 0644 | |||
| date-ar-YE.min.js | 65605 | 2026-04-17 22:30:39 | 0644 | |||
| date-az-Cyrl-AZ.min.js | 65570 | 2026-04-17 22:31:20 | 0644 | |||
| date-az-Latn-AZ.min.js | 64239 | 2026-04-17 22:31:16 | 0644 | |||
| date-be-BY.min.js | 65658 | 2026-04-17 22:31:15 | 0644 | |||
| date-bg-BG.min.js | 65737 | 2026-04-17 22:30:18 | 0644 | |||
| date-bs-Latn-BA.min.js | 63945 | 2026-04-17 22:31:05 | 0644 | |||
| date-ca-ES.min.js | 64003 | 2026-04-17 22:30:21 | 0644 | |||
| date-cs-CZ.min.js | 64073 | 2026-04-17 22:30:26 | 0644 | |||
| date-cy-GB.min.js | 63965 | 2026-04-17 22:30:54 | 0644 | |||
| date-da-DK.min.js | 63903 | 2026-04-17 22:30:37 | 0644 | |||
| date-de-AT.min.js | 64046 | 2026-04-17 22:31:11 | 0644 | |||
| date-de-CH.min.js | 64003 | 2026-04-17 22:31:08 | 0644 | |||
| date-de-DE.min.js | 64003 | 2026-04-17 22:31:09 | 0644 | |||
| date-de-LI.min.js | 64011 | 2026-04-17 22:31:18 | 0644 | |||
| date-de-LU.min.js | 64004 | 2026-04-17 22:30:49 | 0644 | |||
| date-dv-MV.min.js | 66133 | 2026-04-17 22:30:32 | 0644 | |||
| date-el-GR.min.js | 65988 | 2026-04-17 22:30:25 | 0644 | |||
| date-en-029.min.js | 63972 | 2026-04-17 22:30:24 | 0644 | |||
| date-en-AU.min.js | 63963 | 2026-04-17 22:31:09 | 0644 | |||
| date-en-BZ.min.js | 63963 | 2026-04-17 22:30:33 | 0644 | |||
| date-en-CA.min.js | 63949 | 2026-04-17 22:31:03 | 0644 | |||
| date-en-GB.min.js | 63958 | 2026-04-17 22:31:13 | 0644 | |||
| date-en-IE.min.js | 63937 | 2026-04-17 22:30:49 | 0644 | |||
| date-en-JM.min.js | 63968 | 2026-04-17 22:31:07 | 0644 | |||
| date-en-NZ.min.js | 63971 | 2026-04-17 22:31:15 | 0644 | |||
| date-en-PH.min.js | 63987 | 2026-04-17 22:31:22 | 0644 | |||
| date-en-TT.min.js | 63987 | 2026-04-17 22:30:41 | 0644 | |||
| date-en-US.min.js | 61188 | 2026-04-17 22:31:04 | 0644 | |||
| date-en-ZA.min.js | 63963 | 2026-04-17 22:30:34 | 0644 | |||
| date-en-ZW.min.js | 63965 | 2026-04-17 22:30:47 | 0644 | |||
| date-es-AR.min.js | 64037 | 2026-04-17 22:31:25 | 0644 | |||
| date-es-BO.min.js | 64033 | 2026-04-17 22:30:38 | 0644 | |||
| date-es-CL.min.js | 64009 | 2026-04-17 22:31:13 | 0644 | |||
| date-es-CO.min.js | 64035 | 2026-04-17 22:30:42 | 0644 | |||
| date-es-CR.min.js | 64039 | 2026-04-17 22:30:57 | 0644 | |||
| date-es-DO.min.js | 64062 | 2026-04-17 22:31:24 | 0644 | |||
| date-es-EC.min.js | 64013 | 2026-04-17 22:31:12 | 0644 | |||
| date-es-ES.min.js | 64015 | 2026-04-17 22:31:03 | 0644 | |||
| date-es-GT.min.js | 64037 | 2026-04-17 22:30:17 | 0644 | |||
| date-es-HN.min.js | 64035 | 2026-04-17 22:30:52 | 0644 | |||
| date-es-MX.min.js | 64036 | 2026-04-17 22:30:36 | 0644 | |||
| date-es-NI.min.js | 64037 | 2026-04-17 22:31:19 | 0644 | |||
| date-es-PA.min.js | 64036 | 2026-04-17 22:31:23 | 0644 | |||
| date-es-PE.min.js | 64032 | 2026-04-17 22:30:56 | 0644 | |||
| date-es-PR.min.js | 64041 | 2026-04-17 22:30:29 | 0644 | |||
| date-es-PY.min.js | 64035 | 2026-04-17 22:31:23 | 0644 | |||
| date-es-SV.min.js | 64041 | 2026-04-17 22:30:17 | 0644 | |||
| date-es-UY.min.js | 64033 | 2026-04-17 22:30:19 | 0644 | |||
| date-es-VE.min.js | 64062 | 2026-04-17 22:30:31 | 0644 | |||
| date-et-EE.min.js | 63992 | 2026-04-17 22:31:24 | 0644 | |||
| date-eu-ES.min.js | 64087 | 2026-04-17 22:30:50 | 0644 | |||
| date-fa-IR.min.js | 64031 | 2026-04-17 22:30:38 | 0644 | |||
| date-fi-FI.min.js | 63994 | 2026-04-17 22:31:07 | 0644 | |||
| date-fo-FO.min.js | 64063 | 2026-04-17 22:31:14 | 0644 | |||
| date-fr-BE.min.js | 64043 | 2026-04-17 22:31:01 | 0644 | |||
| date-fr-CA.min.js | 63998 | 2026-04-17 22:31:23 | 0644 | |||
| date-fr-CH.min.js | 64053 | 2026-04-17 22:30:17 | 0644 | |||
| date-fr-FR.min.js | 64044 | 2026-04-17 22:31:12 | 0644 | |||
| date-fr-LU.min.js | 64052 | 2026-04-17 22:30:36 | 0644 | |||
| date-fr-MC.min.js | 64080 | 2026-04-17 22:30:35 | 0644 | |||
| date-gl-ES.min.js | 63993 | 2026-04-17 22:30:55 | 0644 | |||
| date-gu-IN.min.js | 65822 | 2026-04-17 22:31:17 | 0644 | |||
| date-he-IL.min.js | 65512 | 2026-04-17 22:30:41 | 0644 | |||
| date-hi-IN.min.js | 65660 | 2026-04-17 22:30:33 | 0644 | |||
| date-hr-BA.min.js | 64046 | 2026-04-17 22:30:29 | 0644 | |||
| date-hr-HR.min.js | 64052 | 2026-04-17 22:31:06 | 0644 | |||
| date-hu-HU.min.js | 64152 | 2026-04-17 22:30:23 | 0644 | |||
| date-hy-AM.min.js | 65731 | 2026-04-17 22:30:40 | 0644 | |||
| date-id-ID.min.js | 63893 | 2026-04-17 22:31:15 | 0644 | |||
| date-is-IS.min.js | 64308 | 2026-04-17 22:31:21 | 0644 | |||
| date-it-CH.min.js | 64012 | 2026-04-17 22:30:48 | 0644 | |||
| date-it-IT.min.js | 64000 | 2026-04-17 22:30:42 | 0644 | |||
| date-ja-JP.min.js | 64226 | 2026-04-17 22:30:48 | 0644 | |||
| date-ka-GE.min.js | 65798 | 2026-04-17 22:30:43 | 0644 | |||
| date-kk-KZ.min.js | 65518 | 2026-04-17 22:30:31 | 0644 | |||
| date-kn-IN.min.js | 65877 | 2026-04-17 22:31:08 | 0644 | |||
| date-ko-KR.min.js | 64261 | 2026-04-17 22:31:25 | 0644 | |||
| date-kok-IN.min.js | 65765 | 2026-04-17 22:31:18 | 0644 | |||
| date-ky-KG.min.js | 65515 | 2026-04-17 22:31:02 | 0644 | |||
| date-lt-LT.min.js | 64118 | 2026-04-17 22:30:54 | 0644 | |||
| date-lv-LV.min.js | 64054 | 2026-04-17 22:30:28 | 0644 | |||
| date-mi-NZ.min.js | 64187 | 2026-04-17 22:30:59 | 0644 | |||
| date-mk-MK.min.js | 65696 | 2026-04-17 22:31:07 | 0644 | |||
| date-mn-MN.min.js | 65984 | 2026-04-17 22:31:03 | 0644 | |||
| date-mr-IN.min.js | 65757 | 2026-04-17 22:31:17 | 0644 | |||
| date-ms-BN.min.js | 63880 | 2026-04-17 22:31:19 | 0644 | |||
| date-ms-MY.min.js | 63862 | 2026-04-17 22:31:23 | 0644 | |||
| date-mt-MT.min.js | 64054 | 2026-04-17 22:30:16 | 0644 | |||
| date-nb-NO.min.js | 63927 | 2026-04-17 22:31:16 | 0644 | |||
| date-nl-BE.min.js | 63896 | 2026-04-17 22:31:05 | 0644 | |||
| date-nl-NL.min.js | 63897 | 2026-04-17 22:31:02 | 0644 | |||
| date-nn-NO.min.js | 63919 | 2026-04-17 22:30:53 | 0644 | |||
| date-ns-ZA.min.js | 63984 | 2026-04-17 22:30:46 | 0644 | |||
| date-pa-IN.min.js | 65475 | 2026-04-17 22:30:24 | 0644 | |||
| date-pl-PL.min.js | 64006 | 2026-04-17 22:31:15 | 0644 | |||
| date-pt-BR.min.js | 64029 | 2026-04-17 22:30:16 | 0644 | |||
| date-pt-PT.min.js | 64038 | 2026-04-17 22:31:11 | 0644 | |||
| date-quz-BO.min.js | 64096 | 2026-04-17 22:30:15 | 0644 | |||
| date-quz-EC.min.js | 64076 | 2026-04-17 22:30:57 | 0644 | |||
| date-quz-PE.min.js | 64090 | 2026-04-17 22:31:10 | 0644 | |||
| date-ro-RO.min.js | 63993 | 2026-04-17 22:30:58 | 0644 | |||
| date-ru-RU.min.js | 66488 | 2026-04-17 22:30:30 | 0644 | |||
| date-sa-IN.min.js | 65720 | 2026-04-17 22:31:22 | 0644 | |||
| date-se-FI.min.js | 64382 | 2026-04-17 22:30:27 | 0644 | |||
| date-se-NO.min.js | 64385 | 2026-04-17 22:30:39 | 0644 | |||
| date-se-SE.min.js | 64354 | 2026-04-17 22:30:26 | 0644 | |||
| date-sk-SK.min.js | 63951 | 2026-04-17 22:31:10 | 0644 | |||
| date-sl-SI.min.js | 63948 | 2026-04-17 22:30:58 | 0644 | |||
| date-sma-NO.min.js | 64101 | 2026-04-17 22:30:27 | 0644 | |||
| date-sma-SE.min.js | 64092 | 2026-04-17 22:30:40 | 0644 | |||
| date-smj-NO.min.js | 64425 | 2026-04-17 22:30:21 | 0644 | |||
| date-smj-SE.min.js | 64409 | 2026-04-17 22:30:43 | 0644 | |||
| date-smn-FI.min.js | 64547 | 2026-04-17 22:31:14 | 0644 | |||
| date-sms-FI.min.js | 64757 | 2026-04-17 22:30:28 | 0644 | |||
| date-sq-AL.min.js | 64027 | 2026-04-17 22:30:20 | 0644 | |||
| date-sr-Cyrl-BA.min.js | 65601 | 2026-04-17 22:30:26 | 0644 | |||
| date-sr-Cyrl-CS.min.js | 65512 | 2026-04-17 22:30:35 | 0644 | |||
| date-sr-Latn-BA.min.js | 63943 | 2026-04-17 22:30:20 | 0644 | |||
| date-sr-Latn-CS.min.js | 63945 | 2026-04-17 22:30:44 | 0644 | |||
| date-sv-FI.min.js | 63941 | 2026-04-17 22:30:18 | 0644 | |||
| date-sv-SE.min.js | 64078 | 2026-04-17 22:30:16 | 0644 | |||
| date-sw-KE.min.js | 63956 | 2026-04-17 22:30:55 | 0644 | |||
| date-syr-SY.min.js | 65720 | 2026-04-17 22:30:44 | 0644 | |||
| date-ta-IN.min.js | 65516 | 2026-04-17 22:30:53 | 0644 | |||
| date-te-IN.min.js | 65978 | 2026-04-17 22:30:28 | 0644 | |||
| date-th-TH.min.js | 65532 | 2026-04-17 22:30:34 | 0644 | |||
| date-tn-ZA.min.js | 63971 | 2026-04-17 22:30:22 | 0644 | |||
| date-tr-TR.min.js | 64051 | 2026-04-17 22:31:20 | 0644 | |||
| date-tt-RU.min.js | 65580 | 2026-04-17 22:31:01 | 0644 | |||
| date-uk-UA.min.js | 65680 | 2026-04-17 22:31:21 | 0644 | |||
| date-ur-PK.min.js | 65092 | 2026-04-17 22:30:22 | 0644 | |||
| date-uz-Cyrl-UZ.min.js | 65372 | 2026-04-17 22:31:04 | 0644 | |||
| date-uz-Latn-UZ.min.js | 64002 | 2026-04-17 22:30:51 | 0644 | |||
| date-vi-VN.min.js | 64601 | 2026-04-17 22:30:46 | 0644 | |||
| date-xh-ZA.min.js | 63978 | 2026-04-17 22:30:53 | 0644 | |||
| date-zh-CN.min.js | 64510 | 2026-04-17 22:30:50 | 0644 | |||
| date-zh-HK.min.js | 63995 | 2026-04-17 22:30:15 | 0644 | |||
| date-zh-MO.min.js | 64509 | 2026-04-17 22:30:56 | 0644 | |||
| date-zh-SG.min.js | 64495 | 2026-04-17 22:30:51 | 0644 | |||
| date-zh-TW.min.js | 64556 | 2026-04-17 22:30:45 | 0644 | |||
| date-zu-ZA.min.js | 63954 | 2026-04-17 22:30:32 | 0644 | |||
| date.min.js | 60388 | 2026-04-17 22:30:32 | 0644 | |||
| i18n | 4096 | 2026-04-17 22:42:21 | 0755 |